Volver al catálogo

STARLINK-4800

ActivoComunicacionesVLEO
NORAD 53854·PAYLOAD·🇺🇸 United States

Lanzado Sep 19, 2022 desde Cape Canaveral Space Force Station

Loading…

Próximos Pases (próximas 24 horas)

TLE

ActualizadoSource: CelesTrak SupGP

Época: Sep 14, 2026, 21:39 UTC

1 53854C 22114AN  26257.90256944 -.00029223  00000+0 -93993-3 0  2578
2 53854  53.1581 145.1240 0001330  85.0743 304.6753 15.31710031    12

Sigue STARLINK-4800 en tiempo real con AllMySat

Download on the App Store